Temp
-13 -13 -13 -13 -14 -15 -15 -15 -15 -15 -16 -16 -15 -16 -16 -16 -16 -16 -16 -16 -16 -16 -16 -16 -16 -15 -15 -15 -14 -14 -15 -15 -15 -14 -14 -14 -14 -14 -14 -14 -13 -15 -14 -15 -14
-13 -13 -13 -13 -14 -15 -15 -15 -15 -15 -16 -16 -16 -16 -16 -17 -16 -16 -16 -17 -17 -17 -17 -16 -16 -15 -15 -15 -14 -15 -15 -15 -16 -15 -14 -14 -13 -14 -14 -15 -15 -15 -15 -15 -14
-13 -13 -13 -13 -14 -15 -15 -15 -15 -16 -16 -16 -16 -16 -16 -16 -16 -16 -16 -16 -17 -17 -16 -16 -16 -15 -15 -15 -15 -15 -15 -15 -15 -14 -15 -14 -14 -15 -15 -15 -15 -14 -14 -15 -15
-13 -13 -13 -13 -14 -14 -15 -15 -15 -16 -16 -16 -16 -16 -16 -16 -16 -16 -16 -16 -16 -16 -16 -16 -15 -15 -15 -15 -15 -16 -15 -16 -16 -15 -14 -15 -16 -16 -15 -15 -15 -15 -15 -15 -15
-13 -13 -13 -14 -14 -15 -15 -16 -16 -16 -16 -16 -16 -17 -16 -17 -17 -17 -16 -16 -17 -16 -16 -15 -15 -16 -15 -16 -16 -16 -16 -16 -16 -15 -16 -16 -16 -16 -15 -15 -15 -15 -15 -15 -15
-13 -13 -13 -14 -15 -15 -15 -16 -16 -16 -16 -16 -16 -17 -17 -16 -17 -17 -16 -16 -17 -16 -16 -16 -17 -17 -16 -16 -16 -16 -16 -16 -15 -15 -17 -16 -16 -16 -15 -15 -15 -15 -15 -15 -15
-13 -13 -14 -15 -15 -15 -16 -16 -16 -16 -16 -16 -16 -17 -16 -16 -17 -17 -17 -17 -17 -17 -17 -17 -16 -16 -16 -17 -17 -17 -16 -16 -16 -16 -16 -16 -16 -15 -15 -15 -15 -15 -15 -15 -15
-13 -13 -14 -15 -15 -15 -16 -16 -16 -16 -16 -16 -17 -17 -17 -17 -17 -17 -17 -17 -18 -17 -17 -17 -16 -16 -16 -16 -16 -16 -16 -16 -15 -15 -16 -16 -16 -15 -15 -15 -16 -16 -15 -15 -15
-13 -13 -14 -15 -15 -15 -16 -16 -16 -16 -16 -16 -17 -17 -17 -17 -17 -18 -17 -17 -18 -17 -17 -17 -17 -17 -17 -17 -16 -16 -16 -15 -16 -16 -16 -16 -15 -15 -15 -15 -15 -15 -15 -15 -15
-13 -13 -14 -15 -15 -16 -16 -16 -16 -16 -16 -17 -17 -17 -17 -17 -18 -18 -17 -18 -17 -17 -17 -16 -17 -16 -16 -16 -17 -16 -16 -15 -16 -16 -15 -15 -15 -15 -16 -16 -16 -15 -15 -15 -15
-13 -14 -14 -14 -15 -16 -16 -16 -16 -16 -17 -17 -17 -17 -17 -17 -18 -18 -17 -17 -17 -17 -17 -17 -16 -16 -17 -17 -17 -16 -16 -16 -16 -16 -15 -16 -15 -16 -15 -16 -16 -15 -15 -15 -15
-13 -14 -15 -15 -15 -16 -16 -16 -16 -17 -16 -17 -17 -17 -17 -17 -18 -18 -17 -17 -17 -17 -17 -17 -17 -17 -17 -17 -16 -16 -16 -17 -16 -16 -15 -15 -16 -15 -15 -15 -15 -15 -15 -15 -15
-13 -14 -15 -15 -16 -16 -16 -16 -17 -17 -17 -17 -18 -18 -18 -17 -17 -18 -18 -18 -17 -17 -17 -17 -17 -17 -17 -17 -17 -16 -17 -17 -16 -16 -15 -16 -15 -15 -15 -15 -15 -15 -15 -15 -15
-14 -15 -15 -15 -16 -16 -16 -16 -17 -17 -17 -17 -17 -17 -17 -17 -17 -17 -18 -18 -17 -17 -17 -17 -17 -17 -17 -17 -17 -16 -17 -16 -16 -16 -16 -16 -15 -15 -15 -15 -15 -15 -15 -15 -15
-14 -15 -14 -15 -16 -16 -16 -17 -17 -17 -17 -17 -17 -17 -17 -17 -17 -17 -17 -17 -17 -17 -17 -17 -17 -17 -17 -17 -17 -16 -16 -16 -16 -16 -16 -15 -15 -15 -15 -15 -15 -15 -15 -15 -15
-14 -14 -15 -16 -16 -16 -16 -17 -17 -17 -17 -17 -17 -17 -17 -17 -16 -17 -17 -17 -17 -17 -17 -17 -17 -17 -17 -16 -16 -16 -16 -16 -15 -15 -15 -15 -15 -14 -15 -15 -15 -15 -15 -16 -16
-14 -14 -15 -16 -16 -16 -17 -17 -17 -17 -17 -17 -17 -17 -16 -16 -16 -16 -16 -16 -16 -16 -17 -17 -16 -16 -16 -16 -16 -16 -15 -15 -15 -15 -15 -15 -15 -15 -15 -15 -15 -15 -15 -16 -16
-14 -14 -15 -16 -16 -16 -16 -16 -16 -17 -17 -16 -16 -16 -16 -16 -16 -16 -16 -16 -16 -16 -16 -16 -16 -16 -16 -16 -16 -15 -15 -15 -15 -15 -15 -15 -14 -15 -15 -15 -15 -15 -15 -15 -15
-14 -15 -16 -16 -16 -16 -16 -16 -16 -16 -16 -16 -16 -16 -16 -16 -16 -16 -16 -16 -16 -16 -16 -16 -16 -16 -16 -16 -15 -15 -15 -15 -15 -15 -15 -15 -15 -15 -15 -14 -14 -15 -15 -15 -15
-15 -15 -16 -16 -16 -16 -16 -16 -16 -16 -16 -16 -16 -16 -16 -16 -16 -16 -16 -16 -16 -16 -16 -15 -15 -15 -15 -15 -15 -15 -15 -15 -15 -15 -15 -15 -14 -14 -14 -15 -15 -15 -15 -15 -15
-15 -15 -16 -16 -16 -15 -16 -16 -16 -16 -16 -16 -16 -16 -16 -16 -16 -16 -16 -16 -16 -16 -16 -16 -15 -15 -15 -15 -15 -15 -15 -15 -15 -15 -15 -15 -15 -15 -15 -15 -15 -15 -15 -15 -15
-15 -15 -15 -16 -16 -15 -16 -15 -16 -16 -16 -16 -16 -15 -15 -16 -16 -16 -16 -16 -16 -16 -16 -16 -16 -15 -15 -15 -15 -15 -15 -15 -15 -15 -15 -15 -15 -15 -15 -15 -15 -15 -15 -15 -15
-15 -15 -15 -16 -15 -15 -15 -15 -16 -16 -16 -16 -15 -15 -15 -15 -15 -15 -15 -15 -16 -16 -16 -16 -15 -15 -15 -15 -15 -15 -15 -15 -15 -15 -15 -15 -15 -15 -15 -15 -15 -15 -15 -15 -15
-16 -16 -16 -15 -15 -15 -15 -16 -16 -16 -15 -15 -15 -16 -16 -16 -16 -15 -15 -15 -15 -16 -16 -16 -16 -15 -15 -15 -15 -15 -15 -15 -15 -15 -15 -15 -15 -15 -15 -15 -15 -15 -15 -15 -16
-15 -16 -15 -15 -15 -15 -15 -16 -16 -16 -15 -15 -15 -16 -16 -16 -16 -16 -15 -15 -15 -15 -15 -15 -15 -15 -15 -15 -15 -15 -15 -15 -15 -15 -15 -15 -15 -15 -15 -15 -15 -15 -16 -16 -16
-15 -16 -15 -15 -15 -15 -15 -15 -16 -16 -15 -15 -15 -16 -16 -16 -16 -16 -15 -15 -15 -15 -15 -15 -15 -15 -15 -15 -15 -15 -15 -15 -15 -15 -15 -15 -15 -15 -15 -15 -15 -16 -16 -16 -16
-15 -16 -15 -15 -15 -15 -15 -15 -15 -16 -15 -15 -15 -16 -15 -15 -15 -15 -15 -15 -15 -15 -15 -15 -15 -15 -15 -15 -15 -15 -15 -15 -15 -15 -15 -15 -16 -16 -16 -16 -16 -16 -16 -16 -17
Height
5793 5788 5784 5779 5774 5772 5772 5771 5770 5768 5766 5763 5762 5763 5762 5762 5762 5763 5762 5767 5768 5771 5773 5776 5781 5786 5791 5794 5799 5801 5804 5806 5805 5806 5811 5812 5812 5811 5815 5815 5819 5819 5820 5822 5824
5789 5784 5780 5775 5772 5769 5770 5768 5765 5763 5762 5761 5760 5760 5760 5760 5759 5760 5764 5765 5766 5769 5771 5774 5779 5784 5789 5793 5797 5800 5801 5804 5805 5805 5808 5810 5813 5811 5813 5816 5816 5816 5820 5823 5824
5783 5779 5776 5771 5767 5767 5766 5764 5762 5760 5760 5759 5759 5759 5758 5758 5758 5759 5761 5763 5766 5768 5771 5774 5779 5784 5788 5792 5796 5797 5798 5804 5804 5805 5806 5809 5809 5810 5812 5816 5816 5817 5820 5823 5825
5777 5773 5770 5766 5763 5763 5762 5760 5759 5758 5758 5757 5757 5757 5757 5757 5759 5759 5761 5763 5765 5767 5770 5773 5778 5784 5787 5792 5794 5797 5799 5803 5804 5804 5806 5808 5812 5812 5814 5815 5816 5817 5818 5821 5823
5771 5768 5765 5762 5759 5759 5757 5756 5756 5756 5756 5755 5755 5755 5756 5757 5757 5758 5760 5761 5764 5766 5769 5773 5777 5782 5786 5790 5793 5797 5799 5801 5804 5803 5804 5809 5811 5811 5813 5814 5817 5818 5820 5821 5822
5766 5763 5760 5757 5755 5754 5754 5753 5753 5753 5753 5753 5753 5753 5754 5756 5757 5758 5760 5761 5763 5766 5769 5774 5777 5780 5783 5789 5794 5796 5799 5801 5803 5803 5807 5810 5810 5810 5812 5814 5816 5818 5819 5821 5823
5761 5759 5755 5752 5751 5750 5750 5749 5749 5750 5750 5751 5751 5752 5753 5755 5756 5758 5760 5762 5764 5766 5770 5773 5777 5783 5786 5789 5793 5796 5800 5802 5802 5804 5807 5809 5809 5810 5812 5814 5816 5818 5819 5820 5821
5756 5753 5750 5747 5747 5747 5746 5745 5747 5747 5748 5748 5750 5750 5751 5752 5754 5756 5760 5762 5765 5768 5773 5776 5779 5782 5786 5789 5792 5797 5799 5801 5802 5803 5805 5808 5809 5810 5812 5814 5816 5817 5819 5820 5821
5750 5748 5746 5744 5743 5743 5743 5743 5744 5744 5746 5747 5748 5749 5750 5752 5755 5755 5760 5764 5767 5768 5772 5776 5781 5784 5788 5791 5794 5797 5799 5801 5801 5802 5805 5808 5809 5811 5812 5815 5816 5817 5819 5820 5819
5745 5743 5742 5740 5740 5741 5740 5741 5742 5742 5744 5745 5746 5749 5749 5752 5755 5757 5761 5765 5768 5768 5773 5777 5781 5786 5789 5792 5794 5797 5797 5799 5800 5802 5805 5807 5810 5811 5811 5813 5814 5815 5816 5817 5817
5739 5738 5738 5737 5738 5738 5739 5740 5742 5742 5742 5744 5744 5745 5747 5750 5754 5758 5763 5765 5768 5772 5774 5776 5782 5786 5789 5791 5793 5794 5797 5798 5800 5802 5804 5806 5809 5811 5812 5812 5813 5814 5814 5813 5814
5734 5734 5734 5733 5735 5736 5737 5738 5738 5740 5740 5741 5742 5743 5746 5749 5752 5757 5762 5765 5768 5772 5774 5780 5782 5785 5788 5791 5792 5794 5796 5798 5800 5801 5804 5806 5808 5809 5811 5811 5811 5811 5811 5811 5811
5730 5729 5730 5730 5733 5734 5735 5735 5735 5737 5738 5739 5740 5743 5746 5749 5753 5758 5763 5767 5769 5773 5776 5779 5783 5785 5788 5789 5791 5793 5795 5798 5800 5801 5803 5805 5808 5808 5809 5809 5809 5808 5808 5807 5807
5726 5725 5725 5728 5732 5732 5732 5732 5733 5735 5737 5740 5741 5744 5746 5749 5753 5757 5762 5767 5769 5773 5776 5779 5782 5784 5786 5788 5790 5792 5795 5797 5798 5800 5802 5803 5805 5805 5806 5807 5806 5805 5804 5803 5803
5721 5721 5721 5725 5728 5729 5730 5730 5732 5735 5738 5741 5742 5744 5746 5750 5754 5757 5761 5765 5769 5773 5777 5780 5781 5783 5784 5786 5788 5791 5794 5795 5796 5798 5799 5801 5801 5802 5802 5803 5802 5801 5800 5799 5799
5714 5717 5718 5723 5725 5727 5728 5730 5732 5736 5738 5741 5743 5745 5748 5751 5754 5758 5761 5765 5769 5772 5774 5777 5779 5780 5783 5785 5788 5790 5791 5793 5794 5795 5796 5796 5796 5796 5797 5797 5796 5795 5794 5794 5794
5709 5712 5714 5719 5723 5724 5727 5730 5733 5735 5740 5743 5744 5747 5750 5753 5756 5758 5762 5764 5767 5770 5772 5775 5777 5780 5782 5784 5786 5787 5789 5790 5791 5791 5791 5791 5790 5792 5791 5790 5789 5789 5789 5789 5788
5703 5706 5710 5715 5719 5723 5726 5730 5733 5736 5739 5742 5745 5748 5751 5754 5757 5760 5762 5765 5767 5769 5771 5773 5776 5778 5780 5782 5784 5784 5785 5787 5786 5787 5788 5787 5786 5787 5786 5785 5784 5784 5784 5783 5783
5697 5700 5705 5711 5716 5720 5726 5729 5733 5736 5739 5742 5745 5749 5751 5754 5757 5759 5762 5764 5766 5768 5770 5771 5773 5775 5777 5778 5780 5781 5782 5784 5783 5783 5783 5783 5783 5782 5782 5781 5782 5782 5781 5780 5778
5691 5695 5702 5706 5713 5717 5723 5728 5732 5736 5739 5743 5746 5749 5752 5754 5757 5758 5760 5762 5764 5765 5767 5769 5770 5772 5773 5774 5776 5777 5780 5781 5781 5781 5781 5781 5781 5781 5781 5781 5780 5779 5778 5776 5774
5682 5688 5696 5702 5709 5714 5721 5727 5731 5735 5739 5743 5746 5748 5750 5752 5754 5756 5758 5760 5761 5762 5764 5766 5768 5770 5770 5772 5774 5776 5777 5778 5779 5779 5779 5780 5781 5779 5779 5778 5777 5776 5774 5772 5769
5674 5682 5690 5697 5704 5711 5718 5724 5729 5734 5738 5742 5744 5746 5747 5748 5750 5751 5753 5755 5757 5758 5760 5762 5763 5766 5768 5769 5771 5773 5775 5775 5776 5778 5777 5777 5778 5776 5775 5774 5772 5771 5769 5766 5763
5667 5677 5685 5692 5699 5708 5716 5722 5727 5733 5737 5740 5742 5742 5743 5744 5746 5747 5749 5751 5753 5755 5757 5759 5761 5764 5766 5769 5770 5771 5772 5773 5773 5774 5774 5774 5774 5771 5769 5768 5766 5764 5761 5758 5755
5661 5671 5679 5687 5696 5705 5713 5719 5726 5731 5735 5738 5739 5740 5741 5742 5743 5744 5746 5748 5750 5753 5755 5757 5759 5762 5764 5765 5766 5768 5769 5769 5770 5770 5770 5770 5768 5766 5765 5764 5761 5758 5755 5751 5746
5653 5664 5676 5683 5692 5701 5709 5717 5722 5728 5732 5736 5737 5738 5738 5739 5740 5742 5743 5745 5747 5749 5752 5755 5757 5759 5760 5762 5763 5764 5765 5766 5766 5765 5765 5765 5763 5758 5759 5757 5754 5751 5746 5742 5736
5648 5661 5671 5681 5690 5698 5705 5713 5719 5725 5730 5733 5736 5737 5737 5738 5739 5739 5741 5743 5745 5748 5750 5752 5755 5756 5757 5759 5760 5760 5761 5761 5761 5760 5759 5757 5758 5752 5750 5747 5745 5741 5736 5732 5726
5644 5657 5667 5677 5685 5693 5703 5711 5717 5723 5727 5730 5733 5735 5736 5737 5737 5738 5740 5741 5744 5746 5748 5750 5752 5753 5754 5755 5754 5755 5759 5756 5755 5754 5752 5750 5749 5745 5742 5738 5735 5730 5725 5720 5715
Wind_Speed
40 41 41 38 31 22 21 19 23 27 27 25 15 12 12 16 18 19 20 16 11 12 18 21 29 28 26 22 20 17 18 16 19 18 22 30 19 13 4 2 17 2 5 4 5
38 39 39 37 27 22 23 22 25 26 24 18 13 10 8 11 13 14 12 11 12 14 16 27 31 30 22 21 22 19 20 16 15 20 14 13 21 23 4 4 2 3 2 4 6
38 38 37 33 23 23 24 26 25 22 18 11 8 8 8 12 10 11 12 11 12 16 14 23 27 24 20 20 21 21 22 16 17 10 10 4 7 12 10 3 3 4 5 9 7
39 35 36 30 23 25 27 26 23 20 12 8 11 13 12 11 10 10 11 11 13 14 17 18 20 19 19 20 22 21 18 14 11 19 12 9 15 11 7 3 4 3 7 9 6
37 33 34 27 23 26 29 21 21 18 13 13 14 14 15 10 10 10 13 15 11 14 18 17 18 20 24 24 22 19 17 14 14 5 12 10 6 7 1 4 6 6 6 6 5
35 32 32 27 24 25 23 24 23 18 16 15 15 11 9 8 10 10 13 8 5 12 19 25 29 31 29 25 19 16 6 6 7 7 10 5 4 2 9 7 5 3 3 4 3
32 32 31 24 24 25 23 24 18 17 15 14 12 8 8 8 11 11 9 9 14 16 27 34 34 28 28 24 19 16 10 6 3 4 4 2 2 12 9 6 4 5 5 4 4
31 33 29 21 23 22 26 21 18 16 12 9 9 9 9 11 13 16 13 19 20 30 32 25 24 23 20 20 16 11 6 7 7 8 11 7 8 11 6 4 4 5 7 7 7
31 31 24 20 20 24 23 17 17 14 12 9 10 10 11 12 14 15 19 19 22 31 29 24 20 17 13 11 7 5 8 6 8 9 13 9 10 9 7 4 6 8 11 10 11
30 27 20 18 20 23 18 15 13 12 11 11 12 11 15 15 10 19 23 24 24 29 31 26 23 20 11 13 7 8 5 8 7 12 13 12 10 9 7 7 9 12 12 13 13
27 22 19 17 20 18 14 12 12 12 12 11 13 14 17 19 18 19 25 31 27 24 19 11 21 22 12 7 7 5 13 14 13 12 13 10 8 7 8 9 12 13 12 12 14
23 19 17 17 18 13 12 13 14 15 16 15 14 18 17 20 22 22 27 26 22 20 19 16 11 15 13 11 11 16 18 12 13 13 13 11 11 7 8 6 7 6 9 11 12
21 17 15 16 15 14 14 15 17 16 15 16 17 17 17 15 17 23 28 26 28 25 20 12 10 12 12 15 13 22 18 13 10 7 9 10 9 5 3 3 5 7 10 13 14
22 16 16 16 16 19 18 16 14 15 17 17 18 18 16 15 16 19 29 31 29 26 20 15 12 19 17 18 19 19 20 19 14 13 11 10 10 6 6 7 10 13 14 15 15
22 16 17 16 16 17 14 16 17 19 20 20 20 18 18 18 16 20 24 33 30 26 23 21 22 18 20 20 23 18 17 18 22 22 16 13 12 8 9 11 14 15 15 15 16
21 17 14 17 18 18 18 21 22 21 16 19 19 18 18 18 19 18 19 21 31 25 28 21 17 14 19 20 17 18 18 17 17 18 16 13 16 11 13 16 15 14 14 15 16
21 18 20 20 20 22 25 25 24 22 22 20 18 19 18 16 16 16 17 19 20 22 19 17 15 14 17 21 18 18 16 15 16 17 15 13 19 15 15 13 12 13 12 13 16
24 20 26 25 26 27 27 27 26 21 20 19 18 16 16 14 14 13 13 13 14 15 16 17 19 18 16 17 18 18 17 17 17 17 16 17 11 11 9 9 9 9 8 9 11
26 27 30 31 32 32 31 29 26 21 20 19 18 15 13 12 11 12 12 12 13 14 15 15 15 14 15 18 19 18 18 17 16 13 11 10 6 6 6 7 4 4 6 8 11
29 34 35 37 38 35 32 29 25 21 20 19 16 13 12 11 10 10 11 11 12 14 15 14 16 15 15 17 16 16 12 11 8 7 5 2 3 3 4 4 5 7 9 11 14
34 39 42 44 41 36 32 28 25 22 20 17 15 13 14 15 16 16 15 14 15 16 16 17 17 17 15 14 13 11 10 9 7 5 5 4 4 7 7 7 9 12 14 15 18
38 43 48 48 43 37 34 30 26 23 19 15 13 13 15 17 17 19 20 18 16 16 18 18 17 17 17 15 14 11 10 9 8 9 9 9 8 9 12 13 14 16 18 20 23
42 47 51 50 43 39 36 33 27 24 20 13 9 8 10 10 13 14 16 16 15 15 16 16 16 17 16 15 14 12 12 11 11 11 11 12 14 17 18 19 21 23 25 27 29
49 53 55 51 44 41 39 35 29 24 19 11 4 3 6 8 11 13 16 16 16 17 17 17 16 16 17 17 18 15 16 16 15 15 17 17 20 24 24 24 25 27 30 33 34
52 58 55 49 45 43 42 37 31 22 17 10 3 1 3 6 9 13 16 16 17 18 17 17 17 18 20 21 20 20 20 20 19 21 23 23 24 31 30 30 31 33 35 37 39
56 59 56 50 46 44 44 40 35 25 19 11 5 2 2 4 7 10 12 14 17 18 18 18 19 21 22 22 23 24 23 22 25 26 28 30 28 35 36 37 36 37 40 42 44
58 59 57 51 48 47 44 39 33 27 20 14 8 5 5 4 4 7 9 12 15 18 19 20 21 23 25 26 28 30 23 27 30 31 34 34 36 38 39 40 41 42 44 45 47
Wind_Direction
321 328 329 320 309 306 300 301 303 299 295 301 289 270 279 277 257 247 233 242 248 209 207 197 185 191 194 205 214 219 226 237 245 230 220 225 228 237 175 87 247 349 358 335 315
317 326 329 322 306 306 298 292 301 302 292 290 277 259 287 277 266 252 221 222 202 198 203 190 188 193 202 209 210 211 226 232 223 242 231 233 224 255 222 61 346 300 271 250 282
316 325 326 321 304 302 297 292 298 295 290 276 283 264 271 282 254 219 211 220 211 203 194 193 195 200 204 214 188 209 225 224 234 248 263 278 176 147 93 71 232 244 195 214 240
314 325 324 312 302 296 295 292 295 288 278 259 272 282 271 289 228 211 197 206 202 198 201 190 195 198 207 194 199 206 225 229 240 247 216 113 70 84 65 125 136 149 155 191 204
316 323 319 301 300 296 297 289 291 282 267 263 282 279 264 279 215 218 199 219 207 212 197 185 169 178 181 183 187 201 215 217 230 273 97 77 47 16 62 169 162 151 158 194 204
313 320 314 296 299 298 298 291 284 270 266 269 278 276 274 248 205 211 211 222 196 169 159 153 152 154 165 175 175 188 176 217 226 110 85 80 4 177 167 168 180 198 184 194 187
310 317 311 288 299 299 294 291 268 263 264 269 252 257 253 203 204 203 205 176 144 161 159 154 163 163 161 154 154 158 148 149 208 101 160 201 272 173 179 166 214 244 231 202 198
309 316 307 288 302 300 299 275 254 268 264 255 231 215 193 192 197 201 186 148 146 152 163 165 165 156 169 179 174 178 191 239 229 186 192 201 190 192 199 203 197 243 248 235 213
308 313 299 295 305 301 301 262 255 260 249 236 212 227 183 191 193 162 165 150 162 156 171 169 157 158 177 161 149 184 217 224 224 192 195 184 196 211 231 238 245 230 240 220 218
304 308 291 297 298 297 278 257 246 245 231 222 220 211 187 185 184 183 167 157 160 174 176 180 171 183 181 192 177 200 247 221 205 180 174 175 194 212 199 216 236 221 234 224 225
302 298 286 285 291 292 260 232 240 229 215 220 226 208 192 187 181 195 173 168 172 180 166 148 180 178 168 173 202 244 180 193 190 181 180 185 183 190 224 215 218 236 240 243 245
297 285 288 276 279 264 226 242 244 233 233 222 213 199 189 188 179 191 181 180 157 167 151 172 176 187 162 181 206 179 183 194 214 216 214 205 201 190 190 194 198 234 255 258 269
285 271 271 270 262 238 240 247 245 236 217 196 183 183 181 179 186 185 186 180 174 185 188 161 205 202 227 207 217 197 197 202 229 261 227 220 210 185 185 233 236 270 275 283 289
271 260 261 262 247 239 245 237 215 198 187 175 162 160 163 166 177 176 191 189 187 191 195 199 221 216 225 229 227 208 216 219 223 212 242 233 219 215 255 278 283 283 285 291 300
257 252 259 237 230 225 211 186 172 169 163 163 163 159 159 164 167 172 186 197 199 206 214 220 237 246 224 217 226 220 225 238 239 236 237 243 259 256 273 290 285 286 292 293 306
244 245 248 217 208 200 180 169 168 168 160 163 157 160 166 171 171 174 185 197 206 215 219 232 233 229 212 208 219 240 248 241 233 238 249 262 276 282 293 290 292 287 290 302 307
231 232 202 204 196 182 175 172 166 159 157 158 158 162 159 161 168 181 186 196 202 212 219 214 202 212 219 228 242 244 241 242 247 256 276 283 284 297 299 282 274 281 295 305 309
221 215 195 195 185 178 174 168 165 164 164 163 163 164 161 163 162 166 171 182 192 200 205 213 223 230 223 227 232 239 247 254 263 270 277 278 286 301 272 266 272 293 311 311 303
213 197 196 183 178 173 173 172 172 169 167 167 166 166 171 172 180 180 184 198 210 217 223 223 228 230 230 232 239 241 248 252 260 267 277 284 281 257 237 247 259 288 301 311 316
205 189 192 179 176 174 178 177 175 171 172 172 171 178 181 194 207 210 212 215 223 229 235 232 229 226 228 231 236 238 233 236 250 266 268 187 183 202 205 245 268 281 300 309 308
199 190 187 179 178 178 179 179 177 176 177 182 191 200 212 220 225 227 230 231 230 231 231 228 224 220 220 219 218 225 229 233 236 247 241 227 238 252 267 280 286 294 300 303 305
195 192 185 180 180 178 180 178 176 181 184 193 204 222 230 233 235 237 237 237 228 228 230 226 223 220 211 211 214 217 224 220 236 258 266 273 269 275 277 287 292 297 299 302 305
189 190 185 183 179 179 182 179 182 185 180 185 209 232 233 227 217 219 224 226 223 220 217 220 216 214 217 213 210 213 220 229 248 262 272 278 284 290 297 299 299 302 302 301 304
188 191 185 183 179 181 183 181 180 181 184 192 210 246 234 229 226 226 226 225 227 216 219 221 216 219 215 213 219 219 230 241 256 271 278 288 286 288 292 296 298 298 299 300 303
188 191 186 183 182 183 185 183 185 188 193 197 192 285 245 242 246 242 236 229 219 215 214 219 219 221 221 226 231 234 242 252 263 274 281 280 285 288 292 294 296 297 297 298 298
189 190 187 184 183 187 187 187 194 196 198 205 214 312 312 261 250 247 242 238 229 217 217 224 224 228 231 236 241 242 249 258 267 274 279 281 286 286 290 293 297 297 297 296 297
188 190 188 185 187 190 189 191 197 199 202 208 222 271 303 309 296 261 245 235 223 221 228 235 236 239 243 247 250 251 257 264 271 277 280 285 288 288 290 292 297 298 298 297 298